RYR6KC EIDW-EKCH

Flight info

Callsign RYR6KC
Flight time 1h 47m
Altitude 35000
Route ENDEQ3J ENDEQ Q36 ALAVA Z195 MALUD UL975 WAL M16 NAPEX DCT LAMIX UT29 LIBSO UL975 ERDOW DCT ROPAL DCT LESRA DCT TESPI
Aircraft B738/M-SDE3FGILRWY/SB1

Departure

Time 2026-04-24 10:13
Airport Dublin Airport (EIDW)

Arrival

Time 2026-04-24 12:01
Airport Copenhagen Kastrup Airport (EKCH)
Time Latitude Longitude Altitude Speed Heading
2026-04-24 09:36 53.43097 -6.24729 210 ft 0 kts 185°
2026-04-24 10:01 53.43103 -6.24728 214 ft 4 kts 186°
2026-04-24 10:01 53.43129 -6.24721 213 ft 4 kts 194°
2026-04-24 10:01 53.43155 -6.24707 212 ft 4 kts 205°
2026-04-24 10:01 53.43177 -6.24684 217 ft 4 kts 223°
2026-04-24 10:02 53.43192 -6.24650 211 ft 3 kts 255°
2026-04-24 10:02 53.43195 -6.24613 210 ft 4 kts 275°
2026-04-24 10:02 53.43195 -6.24604 210 ft 0 kts 275°
2026-04-24 10:05 53.43196 -6.24630 210 ft 6 kts 275°
2026-04-24 10:05 53.43202 -6.24735 219 ft 12 kts 275°
2026-04-24 10:05 53.43212 -6.24914 214 ft 18 kts 275°
2026-04-24 10:06 53.43226 -6.25156 210 ft 22 kts 275°
2026-04-24 10:06 53.43152 -6.25611 212 ft 19 kts 245°
2026-04-24 10:06 53.43066 -6.25739 215 ft 19 kts 162°
2026-04-24 10:07 53.42948 -6.25655 212 ft 18 kts 156°
2026-04-24 10:07 53.42833 -6.25571 214 ft 19 kts 157°
2026-04-24 10:07 53.42701 -6.25480 211 ft 19 kts 167°
2026-04-24 10:07 53.42590 -6.25605 210 ft 21 kts 226°
2026-04-24 10:08 53.42478 -6.25793 213 ft 24 kts 225°
2026-04-24 10:08 53.42352 -6.26009 215 ft 27 kts 226°
2026-04-24 10:08 53.42272 -6.26217 213 ft 21 kts 255°
2026-04-24 10:08 53.42275 -6.26455 217 ft 20 kts 275°
2026-04-24 10:09 53.42288 -6.26686 210 ft 20 kts 275°
2026-04-24 10:09 53.42300 -6.26909 210 ft 19 kts 275°
2026-04-24 10:09 53.42312 -6.27125 212 ft 18 kts 275°
2026-04-24 10:09 53.42324 -6.27335 214 ft 18 kts 274°
2026-04-24 10:10 53.42334 -6.27537 210 ft 17 kts 276°
2026-04-24 10:10 53.42346 -6.27731 210 ft 16 kts 276°
2026-04-24 10:10 53.42356 -6.27918 216 ft 16 kts 274°
2026-04-24 10:10 53.42365 -6.28096 210 ft 15 kts 276°
2026-04-24 10:11 53.42376 -6.28278 217 ft 16 kts 276°
2026-04-24 10:11 53.42387 -6.28476 210 ft 18 kts 275°
2026-04-24 10:11 53.42400 -6.28717 210 ft 23 kts 275°
2026-04-24 10:11 53.42407 -6.28972 213 ft 20 kts 255°
2026-04-24 10:12 53.42309 -6.29073 209 ft 17 kts 175°
2026-04-24 10:12 53.42238 -6.28989 208 ft 13 kts 92°
2026-04-24 10:12 53.42233 -6.28841 217 ft 13 kts 96°
2026-04-24 10:12 53.42224 -6.28671 210 ft 22 kts 95°
2026-04-24 10:13 53.42186 -6.27994 211 ft 94 kts 95°
2026-04-24 10:13 53.42105 -6.26540 220 ft 154 kts 96°
2026-04-24 10:13 53.42007 -6.24716 924 ft 154 kts 96°
2026-04-24 10:13 53.41923 -6.22952 1753 ft 155 kts 96°
2026-04-24 10:14 53.41833 -6.21125 2461 ft 159 kts 98°
2026-04-24 10:14 53.41715 -6.19134 2821 ft 187 kts 98°
2026-04-24 10:14 53.41580 -6.16812 3088 ft 211 kts 98°
2026-04-24 10:14 53.41437 -6.14304 3671 ft 220 kts 98°
2026-04-24 10:15 53.41294 -6.11743 4525 ft 221 kts 98°
2026-04-24 10:15 53.41148 -6.09165 5291 ft 228 kts 98°
2026-04-24 10:15 53.40986 -6.06373 5598 ft 251 kts 98°
2026-04-24 10:15 53.40905 -6.03403 6265 ft 260 kts 89°
2026-04-24 10:16 53.41091 -6.00374 7066 ft 263 kts 86°
2026-04-24 10:16 53.41337 -5.97318 7802 ft 267 kts 85°
2026-04-24 10:16 53.41582 -5.94217 8555 ft 270 kts 86°
2026-04-24 10:16 53.41814 -5.91081 9119 ft 272 kts 86°
2026-04-24 10:17 53.42036 -5.87915 9757 ft 276 kts 86°
2026-04-24 10:17 53.42253 -5.84712 10503 ft 278 kts 86°
2026-04-24 10:17 53.42474 -5.81384 10797 ft 299 kts 86°
2026-04-24 10:17 53.42715 -5.77802 11039 ft 318 kts 86°
2026-04-24 10:18 53.42968 -5.74110 11581 ft 326 kts 85°
2026-04-24 10:18 53.43229 -5.70316 12307 ft 329 kts 85°
2026-04-24 10:18 53.43491 -5.66493 13053 ft 332 kts 85°
2026-04-24 10:18 53.43754 -5.62620 13787 ft 336 kts 85°
2026-04-24 10:19 53.44019 -5.58712 14497 ft 340 kts 85°
2026-04-24 10:19 53.44283 -5.54760 15183 ft 343 kts 85°
2026-04-24 10:19 53.44549 -5.50760 15880 ft 347 kts 85°
2026-04-24 10:19 53.44652 -5.46703 16566 ft 350 kts 92°
2026-04-24 10:20 53.44542 -5.42602 17251 ft 353 kts 95°
2026-04-24 10:20 53.44379 -5.38467 17936 ft 357 kts 95°
2026-04-24 10:20 53.44220 -5.34285 18604 ft 362 kts 94°
2026-04-24 10:20 53.44078 -5.30053 19193 ft 365 kts 94°
2026-04-24 10:21 53.43953 -5.25787 19803 ft 368 kts 93°
2026-04-24 10:21 53.43832 -5.21478 20401 ft 371 kts 93°
2026-04-24 10:21 53.43711 -5.17134 20987 ft 374 kts 93°
2026-04-24 10:21 53.43587 -5.12757 21567 ft 377 kts 93°
2026-04-24 10:22 53.43460 -5.08343 22139 ft 381 kts 92°
2026-04-24 10:22 53.43331 -5.03884 22694 ft 384 kts 92°
2026-04-24 10:22 53.43199 -4.99395 23232 ft 388 kts 92°
2026-04-24 10:22 53.43066 -4.94859 23777 ft 391 kts 92°
2026-04-24 10:23 53.42930 -4.90353 24231 ft 394 kts 92°
2026-04-24 10:23 53.42790 -4.85751 24645 ft 398 kts 92°
2026-04-24 10:23 53.42638 -4.81092 25063 ft 401 kts 92°
2026-04-24 10:23 53.42478 -4.76410 25481 ft 404 kts 92°
2026-04-24 10:24 53.42313 -4.71684 25890 ft 407 kts 92°
2026-04-24 10:24 53.42146 -4.66925 26286 ft 411 kts 92°
2026-04-24 10:24 53.41975 -4.62119 26672 ft 414 kts 92°
2026-04-24 10:24 53.41803 -4.57284 27069 ft 417 kts 92°
2026-04-24 10:25 53.41627 -4.52406 27444 ft 421 kts 92°
2026-04-24 10:25 53.41448 -4.47490 27817 ft 424 kts 92°
2026-04-24 10:25 53.41266 -4.42539 28205 ft 427 kts 92°
2026-04-24 10:25 53.41081 -4.37557 28584 ft 430 kts 92°
2026-04-24 10:26 53.40892 -4.32539 28970 ft 433 kts 92°
2026-04-24 10:26 53.40700 -4.27480 29348 ft 435 kts 92°
2026-04-24 10:26 53.40505 -4.22408 29700 ft 438 kts 92°
2026-04-24 10:26 53.40307 -4.17300 30046 ft 440 kts 91°
2026-04-24 10:27 53.40105 -4.12164 30395 ft 442 kts 91°
2026-04-24 10:27 53.39902 -4.07034 30792 ft 441 kts 91°
2026-04-24 10:27 53.39696 -4.01917 31214 ft 440 kts 91°
2026-04-24 10:27 53.39522 -3.96809 31585 ft 438 kts 88°
2026-04-24 10:28 53.39679 -3.91723 31911 ft 437 kts 83°
2026-04-24 10:28 53.39957 -3.86647 32271 ft 437 kts 82°
2026-04-24 10:28 53.40248 -3.81588 32639 ft 436 kts 82°
2026-04-24 10:28 53.40523 -3.76595 32994 ft 436 kts 82°
2026-04-24 10:29 53.40786 -3.71470 33346 ft 436 kts 83°
2026-04-24 10:29 53.41031 -3.66471 33697 ft 435 kts 83°
2026-04-24 10:29 53.41261 -3.61406 34034 ft 436 kts 85°
2026-04-24 10:29 53.41202 -3.56325 34351 ft 438 kts 91°
2026-04-24 10:30 53.40976 -3.51227 34650 ft 438 kts 92°
2026-04-24 10:30 53.40721 -3.46155 34940 ft 437 kts 92°
2026-04-24 10:30 53.40468 -3.41071 35233 ft 436 kts 92°
2026-04-24 10:30 53.40227 -3.35998 35358 ft 440 kts 92°
2026-04-24 10:31 53.39992 -3.30870 35362 ft 442 kts 92°
2026-04-24 10:31 53.39609 -3.22342 35355 ft 440 kts 92°
2026-04-24 10:32 53.39147 -3.12224 35371 ft 434 kts 92°
2026-04-24 10:32 53.38757 -3.02138 35375 ft 434 kts 91°
2026-04-24 10:33 53.38390 -2.92034 35376 ft 435 kts 92°
2026-04-24 10:33 53.38007 -2.81917 35380 ft 435 kts 92°
2026-04-24 10:34 53.37608 -2.71784 35374 ft 436 kts 92°
2026-04-24 10:34 53.37198 -2.61638 35377 ft 437 kts 92°
2026-04-24 10:35 53.36779 -2.51494 35374 ft 437 kts 92°
2026-04-24 10:35 53.36353 -2.41349 35372 ft 437 kts 92°
2026-04-24 10:36 53.35928 -2.31268 35374 ft 436 kts 91°
2026-04-24 10:36 53.36572 -2.21258 35369 ft 431 kts 72°
2026-04-24 10:37 53.38431 -2.11734 35377 ft 430 kts 70°
2026-04-24 10:37 53.40351 -2.02252 35370 ft 429 kts 70°
2026-04-24 10:38 53.42235 -1.92752 35375 ft 429 kts 70°
2026-04-24 10:38 53.44085 -1.83242 35367 ft 428 kts 71°
2026-04-24 10:39 53.45913 -1.73748 35376 ft 428 kts 71°
2026-04-24 10:39 53.47735 -1.64239 35378 ft 427 kts 71°
2026-04-24 10:40 53.49545 -1.54742 35383 ft 427 kts 71°
2026-04-24 10:40 53.51352 -1.45219 35384 ft 427 kts 72°
2026-04-24 10:41 53.53136 -1.35771 35390 ft 427 kts 72°
2026-04-24 10:41 53.54925 -1.26247 35390 ft 427 kts 72°
2026-04-24 10:42 53.56704 -1.16729 35394 ft 427 kts 73°
2026-04-24 10:42 53.58478 -1.07187 35388 ft 427 kts 73°
2026-04-24 10:43 53.60242 -0.97648 35399 ft 427 kts 73°
2026-04-24 10:43 53.62005 -0.88071 35394 ft 428 kts 74°
2026-04-24 10:44 53.63758 -0.78495 35400 ft 428 kts 74°
2026-04-24 10:44 53.65507 -0.68891 35399 ft 429 kts 75°
2026-04-24 10:45 53.67249 -0.59280 35400 ft 429 kts 75°
2026-04-24 10:45 53.68987 -0.49636 35395 ft 430 kts 76°
2026-04-24 10:46 53.70707 -0.40042 35404 ft 430 kts 76°
2026-04-24 10:46 53.72431 -0.30373 35398 ft 430 kts 76°
2026-04-24 10:47 53.74147 -0.20699 35404 ft 430 kts 77°
2026-04-24 10:47 53.75854 -0.11026 35398 ft 430 kts 77°
2026-04-24 10:48 53.77554 -0.01342 35407 ft 429 kts 77°
2026-04-24 10:48 53.79241 0.08328 35401 ft 428 kts 78°
2026-04-24 10:49 53.80919 0.17992 35415 ft 427 kts 78°
2026-04-24 10:49 53.82583 0.27631 35406 ft 426 kts 78°
2026-04-24 10:50 53.84237 0.37265 35406 ft 426 kts 78°
2026-04-24 10:50 53.85881 0.46889 35413 ft 425 kts 78°
2026-04-24 10:51 53.87515 0.56510 35411 ft 424 kts 78°
2026-04-24 10:51 53.89137 0.66117 35411 ft 424 kts 79°
2026-04-24 10:52 53.90755 0.75740 35413 ft 424 kts 79°
2026-04-24 10:52 53.92736 0.85199 35406 ft 431 kts 67°
2026-04-24 10:53 53.96054 0.93679 35413 ft 436 kts 59°
2026-04-24 10:53 53.99603 1.02047 35410 ft 437 kts 59°
2026-04-24 10:54 54.03131 1.10458 35413 ft 437 kts 59°
2026-04-24 10:54 54.06630 1.18917 35410 ft 437 kts 60°
2026-04-24 10:55 54.10116 1.27415 35413 ft 438 kts 60°
2026-04-24 10:55 54.13601 1.35945 35410 ft 438 kts 60°
2026-04-24 10:56 54.17081 1.44488 35414 ft 439 kts 60°
2026-04-24 10:56 54.20560 1.53058 35408 ft 439 kts 60°
2026-04-24 10:57 54.24039 1.61657 35408 ft 439 kts 60°
2026-04-24 10:57 54.27487 1.70209 35406 ft 440 kts 60°
2026-04-24 10:58 54.30951 1.78830 35406 ft 440 kts 60°
2026-04-24 10:58 54.34410 1.87469 35403 ft 440 kts 60°
2026-04-24 10:59 54.37862 1.96122 35403 ft 439 kts 60°
2026-04-24 10:59 54.41310 2.04791 35398 ft 439 kts 60°
2026-04-24 11:00 54.44744 2.13459 35399 ft 439 kts 60°
2026-04-24 11:00 54.48165 2.22123 35398 ft 438 kts 60°
2026-04-24 11:01 54.51581 2.30803 35400 ft 437 kts 60°
2026-04-24 11:01 54.54987 2.39489 35394 ft 437 kts 60°
2026-04-24 11:02 54.58359 2.48119 35399 ft 437 kts 60°
2026-04-24 11:02 54.61742 2.56808 35397 ft 436 kts 61°
2026-04-24 11:03 54.65108 2.65482 35396 ft 436 kts 61°
2026-04-24 11:03 54.68484 2.74215 35380 ft 435 kts 61°
2026-04-24 11:04 54.71844 2.82933 35390 ft 436 kts 61°
2026-04-24 11:04 54.75199 2.91672 35397 ft 436 kts 61°
2026-04-24 11:05 54.78554 3.00441 35382 ft 437 kts 61°
2026-04-24 11:05 54.81883 3.09173 35386 ft 437 kts 61°
2026-04-24 11:06 54.85227 3.17974 35377 ft 437 kts 61°
2026-04-24 11:06 54.88564 3.26788 35380 ft 437 kts 61°
2026-04-24 11:07 54.93556 3.40035 35369 ft 436 kts 61°
2026-04-24 11:07 54.96872 3.48875 35366 ft 436 kts 61°
2026-04-24 11:08 55.00181 3.57724 35363 ft 436 kts 61°
2026-04-24 11:08 55.03482 3.66589 35360 ft 436 kts 61°
2026-04-24 11:09 55.06775 3.75462 35354 ft 436 kts 61°
2026-04-24 11:09 55.10065 3.84356 35349 ft 436 kts 60°
2026-04-24 11:10 55.13344 3.93272 35339 ft 436 kts 62°
2026-04-24 11:10 55.15913 4.02771 35330 ft 431 kts 71°
2026-04-24 11:11 55.18175 4.12497 35318 ft 432 kts 71°
2026-04-24 11:11 55.20446 4.22229 35311 ft 432 kts 71°
2026-04-24 11:12 55.22745 4.31966 35304 ft 433 kts 71°
2026-04-24 11:12 55.25049 4.41718 35305 ft 433 kts 70°
2026-04-24 11:13 55.27348 4.51490 35308 ft 434 kts 71°
2026-04-24 11:13 55.29642 4.61288 35302 ft 434 kts 71°
2026-04-24 11:14 55.31928 4.71099 35300 ft 434 kts 71°
2026-04-24 11:14 55.34207 4.80928 35298 ft 435 kts 71°
2026-04-24 11:15 55.36483 4.90782 35302 ft 435 kts 71°
2026-04-24 11:15 55.38687 5.00681 35304 ft 434 kts 76°
2026-04-24 11:16 55.39991 5.10980 35307 ft 431 kts 82°
2026-04-24 11:16 55.41122 5.21350 35304 ft 431 kts 82°
2026-04-24 11:17 55.42263 5.31721 35304 ft 432 kts 82°
2026-04-24 11:17 55.43425 5.42105 35294 ft 433 kts 82°
2026-04-24 11:18 55.44591 5.52502 35295 ft 433 kts 82°
2026-04-24 11:18 55.45746 5.62858 35291 ft 434 kts 82°
2026-04-24 11:19 55.46899 5.73287 35286 ft 434 kts 82°
2026-04-24 11:19 55.48045 5.83745 35278 ft 435 kts 82°
2026-04-24 11:20 55.48992 5.92444 35283 ft 435 kts 82°
2026-04-24 11:20 55.50126 6.02946 35274 ft 436 kts 81°
2026-04-24 11:21 55.51253 6.13470 35269 ft 437 kts 82°
2026-04-24 11:21 55.52372 6.24020 35264 ft 438 kts 82°
2026-04-24 11:22 55.53487 6.34619 35261 ft 439 kts 82°
2026-04-24 11:22 55.54592 6.45229 35257 ft 440 kts 81°
2026-04-24 11:23 55.55690 6.55868 35250 ft 441 kts 81°
2026-04-24 11:23 55.56783 6.66548 35249 ft 442 kts 81°
2026-04-24 11:24 55.57869 6.77247 35245 ft 443 kts 81°
2026-04-24 11:24 55.58948 6.87969 35237 ft 444 kts 81°
2026-04-24 11:25 55.60020 6.98726 35236 ft 445 kts 81°
2026-04-24 11:25 55.61083 7.09503 35231 ft 445 kts 81°
2026-04-24 11:26 55.62139 7.20304 35230 ft 446 kts 81°
2026-04-24 11:26 55.63186 7.31121 35222 ft 446 kts 81°
2026-04-24 11:27 55.64225 7.41947 35216 ft 446 kts 81°
2026-04-24 11:27 55.65240 7.52640 35199 ft 436 kts 81°
2026-04-24 11:28 55.66234 7.63209 35213 ft 438 kts 81°
2026-04-24 11:28 55.67232 7.73917 35217 ft 447 kts 81°
2026-04-24 11:29 55.68244 7.84897 35215 ft 456 kts 80°
2026-04-24 11:29 55.69259 7.96010 35199 ft 457 kts 80°
2026-04-24 11:30 55.70260 8.07104 35179 ft 455 kts 80°
2026-04-24 11:30 55.71251 8.18186 35182 ft 455 kts 80°
2026-04-24 11:31 55.72232 8.29275 35161 ft 454 kts 80°
2026-04-24 11:31 55.73196 8.40303 35161 ft 450 kts 80°
2026-04-24 11:32 55.74104 8.50801 35152 ft 440 kts 80°
2026-04-24 11:32 55.74853 8.61491 35154 ft 434 kts 86°
2026-04-24 11:33 55.75060 8.72129 34900 ft 425 kts 88°
2026-04-24 11:33 55.75122 8.77354 34446 ft 424 kts 88°
2026-04-24 11:33 55.75188 8.82626 33782 ft 429 kts 88°
2026-04-24 11:34 55.75265 8.87927 33292 ft 428 kts 87°
2026-04-24 11:34 55.75348 8.93173 32954 ft 423 kts 87°
2026-04-24 11:34 55.75436 8.98380 32624 ft 419 kts 87°
2026-04-24 11:34 55.75525 9.03531 32219 ft 417 kts 87°
2026-04-24 11:35 55.75614 9.08660 31822 ft 415 kts 87°
2026-04-24 11:35 55.75700 9.13765 31457 ft 412 kts 87°
2026-04-24 11:35 55.75785 9.18841 31097 ft 410 kts 86°
2026-04-24 11:35 55.75867 9.23882 30720 ft 408 kts 86°
2026-04-24 11:36 55.75946 9.28904 30366 ft 406 kts 86°
2026-04-24 11:36 55.76023 9.33900 29989 ft 403 kts 86°
2026-04-24 11:36 55.76096 9.38835 29579 ft 400 kts 86°
2026-04-24 11:36 55.76169 9.43783 29022 ft 401 kts 86°
2026-04-24 11:37 55.76237 9.48655 28656 ft 398 kts 86°
2026-04-24 11:37 55.76304 9.53548 28281 ft 395 kts 86°
2026-04-24 11:37 55.76369 9.58406 27914 ft 392 kts 86°
2026-04-24 11:37 55.76431 9.63220 27548 ft 389 kts 86°
2026-04-24 11:38 55.76491 9.68002 27187 ft 386 kts 86°
2026-04-24 11:38 55.76548 9.72745 26830 ft 383 kts 86°
2026-04-24 11:38 55.76604 9.77458 26490 ft 380 kts 86°
2026-04-24 11:38 55.76657 9.82141 26140 ft 378 kts 86°
2026-04-24 11:39 55.76708 9.86800 25792 ft 376 kts 86°
2026-04-24 11:39 55.76757 9.91432 25453 ft 374 kts 86°
2026-04-24 11:39 55.76805 9.96027 25158 ft 372 kts 86°
2026-04-24 11:39 55.76849 10.00594 24786 ft 372 kts 87°
2026-04-24 11:40 55.76626 10.05223 24249 ft 379 kts 98°
2026-04-24 11:40 55.76124 10.09815 23900 ft 378 kts 100°
2026-04-24 11:40 55.75576 10.14361 23591 ft 375 kts 101°
2026-04-24 11:40 55.75023 10.18873 23212 ft 373 kts 101°
2026-04-24 11:41 55.74478 10.23351 22852 ft 370 kts 100°
2026-04-24 11:41 55.73944 10.27805 22493 ft 368 kts 100°
2026-04-24 11:41 55.73425 10.32178 22143 ft 366 kts 100°
2026-04-24 11:41 55.72900 10.36637 21777 ft 364 kts 99°
2026-04-24 11:42 55.72392 10.40957 21434 ft 361 kts 99°
2026-04-24 11:42 55.71882 10.45309 21108 ft 359 kts 99°
2026-04-24 11:42 55.71374 10.49631 20768 ft 357 kts 99°
2026-04-24 11:42 55.70867 10.53932 20428 ft 356 kts 99°
2026-04-24 11:43 55.70362 10.58210 20103 ft 354 kts 99°
2026-04-24 11:43 55.69858 10.62464 19781 ft 351 kts 99°
2026-04-24 11:43 55.69356 10.66691 19468 ft 350 kts 99°
2026-04-24 11:43 55.68854 10.70908 19147 ft 348 kts 99°
2026-04-24 11:44 55.68353 10.75092 18845 ft 346 kts 99°
2026-04-24 11:44 55.67855 10.79247 18549 ft 344 kts 99°
2026-04-24 11:44 55.67358 10.83379 18216 ft 342 kts 99°
2026-04-24 11:44 55.66860 10.87502 17856 ft 341 kts 99°
2026-04-24 11:45 55.66365 10.91596 17519 ft 339 kts 99°
2026-04-24 11:45 55.65871 10.95663 17190 ft 337 kts 99°
2026-04-24 11:45 55.65377 10.99719 16857 ft 336 kts 99°
2026-04-24 11:45 55.64884 11.03759 16519 ft 335 kts 99°
2026-04-24 11:46 55.64391 11.07780 16220 ft 333 kts 99°
2026-04-24 11:46 55.63900 11.11778 15916 ft 331 kts 99°
2026-04-24 11:46 55.63410 11.15758 15600 ft 330 kts 98°
2026-04-24 11:46 55.62920 11.19724 15290 ft 329 kts 99°
2026-04-24 11:47 55.62438 11.23616 15000 ft 328 kts 98°
2026-04-24 11:47 55.61948 11.27565 14628 ft 330 kts 99°
2026-04-24 11:47 55.61455 11.31529 14335 ft 329 kts 99°
2026-04-24 11:47 55.60962 11.35465 14079 ft 326 kts 98°
2026-04-24 11:48 55.60472 11.39374 13793 ft 325 kts 99°
2026-04-24 11:48 55.59983 11.43266 13482 ft 323 kts 99°
2026-04-24 11:48 55.59496 11.47134 13189 ft 321 kts 99°
2026-04-24 11:48 55.59011 11.50975 12894 ft 319 kts 99°
2026-04-24 11:49 55.58529 11.54768 12571 ft 313 kts 99°
2026-04-24 11:49 55.58054 11.58511 12071 ft 312 kts 99°
2026-04-24 11:49 55.57579 11.62245 11569 ft 310 kts 99°
2026-04-24 11:49 55.57018 11.65910 11148 ft 308 kts 104°
2026-04-24 11:50 55.56347 11.69488 10689 ft 306 kts 105°
2026-04-24 11:50 55.55654 11.73025 10250 ft 303 kts 106°
2026-04-24 11:50 55.54968 11.76523 9789 ft 300 kts 106°
2026-04-24 11:50 55.54302 11.79959 9330 ft 298 kts 105°
2026-04-24 11:51 55.53641 11.83400 8871 ft 295 kts 105°
2026-04-24 11:51 55.52980 11.86860 8391 ft 293 kts 105°
2026-04-24 11:51 55.52343 11.90204 7944 ft 290 kts 105°
2026-04-24 11:51 55.51704 11.93563 7531 ft 287 kts 105°
2026-04-24 11:52 55.51072 11.96883 7113 ft 284 kts 105°
2026-04-24 11:52 55.50446 12.00176 6683 ft 282 kts 105°
2026-04-24 11:52 55.49825 12.03437 6242 ft 280 kts 105°
2026-04-24 11:52 55.49207 12.06675 5807 ft 277 kts 105°
2026-04-24 11:53 55.48594 12.09886 5413 ft 274 kts 105°
2026-04-24 11:53 55.47997 12.13000 5244 ft 262 kts 105°
2026-04-24 11:53 55.47428 12.15968 5110 ft 250 kts 105°
2026-04-24 11:53 55.46891 12.18760 5031 ft 234 kts 104°
2026-04-24 11:54 55.46383 12.21404 4911 ft 219 kts 104°
2026-04-24 11:54 55.45905 12.23899 4766 ft 214 kts 104°
2026-04-24 11:54 55.45681 12.26433 4579 ft 207 kts 84°
2026-04-24 11:54 55.45684 12.28912 4357 ft 198 kts 85°
2026-04-24 11:55 55.45680 12.31311 4105 ft 194 kts 85°
2026-04-24 11:55 55.45679 12.33676 3847 ft 192 kts 85°
2026-04-24 11:55 55.45679 12.36011 3582 ft 189 kts 85°
2026-04-24 11:55 55.45749 12.38291 3299 ft 183 kts 68°
2026-04-24 11:56 55.46460 12.39978 3120 ft 172 kts 36°
2026-04-24 11:56 55.47271 12.41511 3047 ft 168 kts 45°
2026-04-24 11:56 55.48051 12.42955 2965 ft 160 kts 38°
2026-04-24 11:56 55.48870 12.44271 2760 ft 159 kts 36°
2026-04-24 11:57 55.49693 12.45560 2562 ft 157 kts 36°
2026-04-24 11:57 55.50510 12.46831 2346 ft 156 kts 36°
2026-04-24 11:57 55.51312 12.48077 2138 ft 156 kts 35°
2026-04-24 11:57 55.52135 12.49353 1927 ft 155 kts 36°
2026-04-24 11:58 55.52928 12.50588 1730 ft 149 kts 36°
2026-04-24 11:58 55.53694 12.51778 1501 ft 145 kts 36°
2026-04-24 11:58 55.54443 12.52941 1324 ft 147 kts 36°
2026-04-24 11:58 55.55228 12.54154 1142 ft 150 kts 36°
2026-04-24 11:59 55.56001 12.55367 919 ft 149 kts 37°
2026-04-24 11:59 55.56776 12.56567 746 ft 147 kts 37°
2026-04-24 11:59 55.57536 12.57801 509 ft 150 kts 38°
2026-04-24 11:59 55.58298 12.59005 318 ft 145 kts 37°
2026-04-24 12:00 55.59063 12.60137 106 ft 142 kts 36°
2026-04-24 12:00 55.59790 12.61230 17 ft 128 kts 43°
2026-04-24 12:00 55.60359 12.62117 20 ft 84 kts 40°
2026-04-24 12:00 55.60685 12.62618 26 ft 52 kts 41°
2026-04-24 12:01 55.60941 12.63018 21 ft 46 kts 41°
2026-04-24 12:01 55.61165 12.63362 27 ft 40 kts 41°
2026-04-24 12:01 55.61367 12.63671 24 ft 37 kts 40°
2026-04-24 12:01 55.61554 12.63961 25 ft 34 kts 41°
2026-04-24 12:02 55.61641 12.64191 27 ft 21 kts 81°
2026-04-24 12:02 55.61650 12.64443 23 ft 21 kts 83°
2026-04-24 12:02 55.61727 12.64628 20 ft 19 kts 32°
2026-04-24 12:02 55.61839 12.64757 19 ft 19 kts 33°
2026-04-24 12:03 55.61949 12.64884 17 ft 19 kts 32°
2026-04-24 12:03 55.62058 12.65007 20 ft 18 kts 32°
2026-04-24 12:03 55.62162 12.65126 23 ft 18 kts 32°
2026-04-24 12:03 55.62272 12.65203 21 ft 17 kts
2026-04-24 12:04 55.62388 12.65196 22 ft 16 kts 356°
2026-04-24 12:04 55.62438 12.65331 18 ft 13 kts 89°
2026-04-24 12:04 55.62469 12.65440 17 ft 10 kts 18°
2026-04-24 12:04 55.62509 12.65466 17 ft 0 kts 23°
2026-04-24 12:05 55.62511 12.65467 17 ft 0 kts 23°